Вернуться в каталог

CZ-2D DEB

АктивенSSO
NORAD 38327·DEBRIS·🇨🇳 China

Запущен Nov 20, 2011 с Jiuquan Satellite Launch Center

Loading…

Ближайшие Пролёты (ближайшие 24 часа)

TLE

СвежийSource: Space-Track

Эпоха: Sep 14, 2026, 04:39 UTC

1 38327U 11068J   26257.19407495  .00000069  00000-0  69123-4 0  9990
2 38327  98.6858 336.7128 0199133  51.1209 338.2480 13.94461748748681

Отслеживайте CZ-2D DEB в реальном времени с AllMySat

Download on the App Store